Weather History for Kill Devil Hills, NC

Change the Weather History Date:

Friday, October 5, 2012

  Actual Average (KMQI) Record (KMQI)
Temperature  
Mean Temperature 71 °F -  
Max Temperature 76 °F 72 °F 90 °F (1986)
Min Temperature 66 °F 61 °F 43 °F (1987)
Cooling Degree Days 6    
Growing Degree Days 21 (Base 50)    
Moisture  
Dew Point 63 °F    
Average Humidity 77    
Maximum Humidity 92    
Minimum Humidity 58    
Precipitation  
Precipitation 0.01 in - - ()
Sea Level Pressure  
Sea Level Pressure 30.08 in    
Wind  
Wind Speed 3 mph (NNW)    
Max Wind Speed 8 mph    
Max Gust Speed -    
Visibility 10 miles    
Events      
Averages and records for this station are not official NWS values.
T = Trace of Precipitation, MM = Missing Value Source: NWS Daily Summary

Daily Weather History Graph

Daily Weather History Graph

Search for Another Location

Airport:

Trip Planner

Search our weather history database for the weather conditions in past years. The results will help you decide how hot, cold, wet, or windy it might be!

Date:

Astronomy

Oct. 05, 2012 Rise Set
Actual Time 7:01 AM EDT 6:39 PM EDT
Civil Twilight 6:35 AM EDT 7:05 PM EDT
Nautical Twilight 6:06 AM EDT 7:35 PM EDT
Astronomical Twilight 5:36 AM EDT 8:04 PM EDT
Moon 10:10 PM EDT (10/5) 11:58 AM EDT (10/5)
Length of Visible Light 12h 29m
Length of Day
11h 38m
Waning Gibbous, 74% of the Moon is Illuminated
Oct 5
Waning Gibbous
Oct 8
Last Quarter
Oct 15
New
Oct 21
First Quarter
Oct 29
Full

Hourly Weather History & Observations

Time (EDT) Temp. Dew Point Humidity Pressure Visibility Wind Dir Wind Speed Gust Speed Precip Events Conditions
12:15 AM 72.0 °F 65.3 °F 79% 30.12 in 10.0 mi WNW 6.9 mph - N/A   Clear
12:35 AM 71.8 °F 65.5 °F 80% 30.12 in 10.0 mi WNW 8.1 mph - N/A   Clear
12:55 AM 71.6 °F 66.0 °F 82% 30.12 in 10.0 mi West 4.6 mph - N/A   Clear
1:15 AM 71.4 °F 66.4 °F 84% 30.12 in 10.0 mi West 6.9 mph - N/A   Clear
1:35 AM 71.6 °F 66.4 °F 84% 30.12 in 10.0 mi West 5.8 mph - N/A   Clear
1:55 AM 71.4 °F 66.7 °F 85% 30.12 in 10.0 mi WNW 3.5 mph - N/A   Clear
2:15 AM 71.1 °F 67.1 °F 87% 30.12 in 10.0 mi WNW 4.6 mph - 0.01 in   Clear
2:35 AM 70.7 °F 66.9 °F 88% 30.11 in 10.0 mi WNW 4.6 mph - 0.01 in   Clear
2:55 AM 70.7 °F 66.4 °F 86% 30.11 in 10.0 mi WNW 3.5 mph - 0.01 in   Clear
3:15 AM 70.2 °F 66.0 °F 87% 30.11 in 10.0 mi West 4.6 mph - N/A   Clear
3:35 AM 70.0 °F 65.7 °F 86% 30.11 in 10.0 mi WNW 3.5 mph - N/A   Clear
3:55 AM 70.0 °F 65.3 °F 85% 30.10 in 10.0 mi NW 3.5 mph - N/A   Clear
4:15 AM 69.4 °F 64.8 °F 85% 30.10 in 10.0 mi WNW 3.5 mph - N/A   Clear
4:35 AM 69.1 °F 64.2 °F 84% 30.10 in 10.0 mi NW 3.5 mph - N/A   Clear
4:55 AM 68.9 °F 64.0 °F 84% 30.10 in 10.0 mi Calm Calm - N/A   Clear
5:15 AM 68.7 °F 64.0 °F 85% 30.11 in 10.0 mi Calm Calm - N/A   Clear
5:35 AM 68.4 °F 64.2 °F 87% 30.11 in 10.0 mi WNW 3.5 mph - N/A   Clear
5:55 AM 68.2 °F 64.4 °F 88% 30.11 in 10.0 mi Calm Calm - N/A   Clear
6:15 AM 68.0 °F 64.4 °F 88% 30.11 in 10.0 mi Calm Calm - N/A   Clear
6:35 AM 67.5 °F 64.4 °F 90% 30.11 in 10.0 mi NW 3.5 mph - N/A   Clear
6:55 AM 67.5 °F 64.6 °F 90% 30.11 in 10.0 mi Calm Calm - N/A   Clear
7:15 AM 67.1 °F 64.6 °F 92% 30.12 in 10.0 mi NNW 3.5 mph - N/A   Clear
7:35 AM 67.3 °F 64.9 °F 92% 30.11 in 10.0 mi Calm Calm - N/A   Scattered Clouds
7:55 AM 68.0 °F 65.7 °F 92% 30.12 in 10.0 mi NNW 3.5 mph - N/A   Scattered Clouds
8:15 AM 69.1 °F 66.2 °F 91% 30.12 in 10.0 mi Calm Calm - N/A   Scattered Clouds
8:35 AM 70.2 °F 66.4 °F 88% 30.12 in 10.0 mi North 4.6 mph - N/A   Clear
8:55 AM 71.4 °F 66.4 °F 84% 30.12 in 10.0 mi Calm Calm - N/A   Clear
9:15 AM 72.3 °F 65.8 °F 80% 30.12 in 10.0 mi North 3.5 mph - N/A   Clear
9:35 AM 73.6 °F 66.6 °F 79% 30.12 in 10.0 mi North 3.5 mph - N/A   Clear
9:55 AM 73.8 °F 66.4 °F 78% 30.12 in 10.0 mi NNE 4.6 mph - N/A   Clear
10:15 AM 73.6 °F 66.0 °F 77% 30.12 in 10.0 mi North 3.5 mph - N/A   Clear
10:35 AM 74.5 °F 65.7 °F 74% 30.12 in 10.0 mi NNE 4.6 mph - N/A   Clear
10:55 AM 74.8 °F 64.8 °F 71% 30.12 in 10.0 mi NNE 3.5 mph - N/A   Clear
11:15 AM 74.7 °F 63.9 °F 69% 30.12 in 10.0 mi NNE 4.6 mph - N/A   Clear
11:35 AM 75.4 °F 62.6 °F 64% 30.12 in 10.0 mi Calm Calm - N/A   Clear
11:55 AM 75.6 °F 62.2 °F 63% 30.12 in 10.0 mi NE 5.8 mph - N/A   Clear
12:15 PM 75.6 °F 61.5 °F 62% 30.11 in 10.0 mi ENE 4.6 mph - N/A   Clear
12:35 PM 76.1 °F 61.0 °F 59% 30.10 in 10.0 mi NE 5.8 mph - N/A   Clear
12:55 PM 76.3 °F 61.0 °F 59% 30.10 in 10.0 mi NNE 5.8 mph - N/A   Clear
1:15 PM 75.7 °F 61.0 °F 60% 30.09 in 10.0 mi NE 3.5 mph - N/A   Clear
1:35 PM 74.7 °F 60.4 °F 61% 30.09 in 10.0 mi North 3.5 mph - N/A   Clear
1:55 PM 75.0 °F 60.3 °F 60% 30.08 in 10.0 mi North 3.5 mph - N/A   Clear
2:35 PM 74.5 °F 59.7 °F 60% 30.08 in 10.0 mi NE 4.6 mph - N/A   Clear
2:55 PM 74.3 °F 58.6 °F 58% 30.07 in 10.0 mi Calm Calm - N/A   Clear
3:15 PM 74.1 °F 58.8 °F 59% 30.07 in 10.0 mi Calm Calm - N/A   Clear
3:35 PM 74.1 °F 58.6 °F 58% 30.06 in 10.0 mi North 4.6 mph - N/A   Clear
3:55 PM 74.1 °F 58.5 °F 58% 30.05 in 10.0 mi Calm Calm - N/A   Clear
4:15 PM 73.9 °F 59.2 °F 60% 30.04 in 10.0 mi Calm Calm - N/A   Clear
4:35 PM 73.9 °F 59.4 °F 60% 30.04 in 10.0 mi Calm Calm - N/A   Clear
4:55 PM 73.6 °F 59.9 °F 62% 30.04 in 10.0 mi Calm Calm - N/A   Clear
5:15 PM 72.7 °F 60.1 °F 64% 30.04 in 10.0 mi Calm Calm - N/A   Clear
5:35 PM 72.5 °F 60.3 °F 65% 30.04 in 10.0 mi Calm Calm - N/A   Clear
5:55 PM 71.6 °F 60.6 °F 68% 30.04 in 10.0 mi Calm Calm - N/A   Clear
6:15 PM 70.5 °F 60.6 °F 71% 30.04 in 10.0 mi Calm Calm - N/A   Clear
6:35 PM 68.7 °F 60.8 °F 76% 30.04 in 10.0 mi Calm Calm - N/A   Clear
6:55 PM 68.5 °F 60.4 °F 75% 30.04 in 10.0 mi Calm Calm - N/A   Clear
7:15 PM 68.4 °F 60.3 °F 75% 30.04 in 10.0 mi Calm Calm - N/A   Clear
7:35 PM 68.4 °F 60.3 °F 75% 30.04 in 10.0 mi Calm Calm - N/A   Clear
7:55 PM 67.8 °F 60.4 °F 77% 30.04 in 10.0 mi Calm Calm - N/A   Clear
8:15 PM 66.9 °F 60.6 °F 80% 30.04 in 10.0 mi Calm Calm - N/A   Clear
8:35 PM 66.4 °F 60.6 °F 82% 30.04 in 10.0 mi Calm Calm - N/A   Clear
8:55 PM 66.2 °F 60.8 °F 83% 30.04 in 10.0 mi Calm Calm - N/A   Clear
9:15 PM 66.4 °F 61.0 °F 83% 30.04 in 10.0 mi Calm Calm - N/A   Clear
9:35 PM 66.7 °F 61.2 °F 82% 30.04 in 10.0 mi Calm Calm - N/A   Clear
9:55 PM 66.7 °F 61.2 °F 82% 30.04 in 10.0 mi Calm Calm - N/A   Clear
10:15 PM 67.1 °F 60.8 °F 80% 30.04 in 10.0 mi Calm Calm - N/A   Clear
10:35 PM 67.5 °F 60.3 °F 78% 30.04 in 10.0 mi Calm Calm - N/A   Clear
10:55 PM 67.1 °F 60.3 °F 79% 30.04 in 10.0 mi Calm Calm - N/A   Clear
11:15 PM 66.6 °F 60.4 °F 81% 30.03 in 10.0 mi Calm Calm - N/A   Clear
11:35 PM 66.7 °F 60.8 °F 81% 30.03 in 10.0 mi Calm Calm - N/A   Clear
11:55 PM 67.8 °F 60.6 °F 78% 30.03 in 10.0 mi Calm Calm - N/A   Clear